Regional Weather Roundup
Issued by NWS

Current Version | Previous Version | Text Only | Print | Product List | Glossary On
Versions: 1 2 3 4 5 6 7 8 9 10 11 12 13 14 15 16 17 18 19 20 21 22 23 24 25 26 27 28 29 30 31 32 33 34 35 36 37 38 39 40 41 42 43 44 45 46 47 48 49 50
000
ASUS44 KFWD 250015
RWRTX
NORTH TEXAS HOURLY WEATHER ROUNDUP
NATIONAL WEATHER SERVICE FORT WORTH TX
700 PM CDT SUN JUL 24 2016

NOTE: "FAIR" INDICATES FEW OR NO CLOUDS BELOW 12,000 FEET WITH NO
SIGNIFICANT WEATHER AND/OR OBSTRUCTIONS TO VISIBILITY.

TXZ118-119-250100-
DALLAS/FORT WORTH METROPLEX

CITY           SKY/WX    TMP DP  RH WIND       PRES   REMARKS
DFW AIRPORT    MOSUNNY   98  69  38 SE9       29.87F HX 104
6HR MIN TEMP:  96; 6HR MAX TEMP: 100;

DALLAS LOVE    MOSUNNY   98  68  37 SE3       29.87F HX 103
6HR MIN TEMP:  95; 6HR MAX TEMP: 100;

FTW MEACHAM    SUNNY     99  68  36 E8        29.88S HX 104
6HR MIN TEMP:  97; 6HR MAX TEMP: 102;

DAL-EXECUTIVE  SUNNY     95  68  41 SE6       29.88S HX  99
6HR MIN TEMP:  93; 6HR MAX TEMP: 100;

FTW-ALLIANCE   MOSUNNY   97  68  38 SE9       29.88S HX 102
6HR MIN TEMP:  95; 6HR MAX TEMP: 101;

FTW-NAS-JRB    SUNNY     99  65  32 SE10      29.88S HX 102
6HR MIN TEMP:  96; 6HR MAX TEMP: 101;

FTW-SPINKS     SUNNY     97  66  36 SE7       29.90S HX 100
ARLINGTON      SUNNY     97  67  37 E9        29.88S HX 101
6HR MIN TEMP:  94; 6HR MAX TEMP:  99;

GRAND PRAIRIE  SUNNY     97  64  34 SE7       29.89S HX  99
ADDISON        MOSUNNY   97  66  36 SE8       29.89S HX 100
MESQUITE       SUNNY     95  72  46 SE6       29.89S HX 103
LANCASTER      SUNNY     98  69  38 SE6       29.89S HX 104
$$

TXZ091>094-102>105-117-120-121-131>134-250100-
NORTH CENTRAL TEXAS

CITY           SKY/WX    TMP DP  RH WIND       PRES   REMARKS
SHRMAN/DENISON SUNNY     98  69  38 S7        29.90S HX 104
6HR MIN TEMP:  96; 6HR MAX TEMP: 100;

GAINESVILLE    SUNNY     95  70  44 SE8       29.92S HX 101
6HR MIN TEMP:  94; 6HR MAX TEMP:  97;

BOWIE          SUNNY     96  70  42 SE3       29.90F HX 102
6HR MIN TEMP:  95; 6HR MAX TEMP:  99;

BRIDGEPORT     SUNNY     96  68  40 E8        29.90S HX 101
6HR MIN TEMP:  95; 6HR MAX TEMP:  99;

DECATUR        SUNNY     95  66  37 E9        29.90F HX  98
6HR MIN TEMP:  93; 6HR MAX TEMP:  98;

DENTON         SUNNY     97  70  41 SE7       29.88S HX 103
6HR MIN TEMP:  94; 6HR MAX TEMP:  98;

MCKINNEY       SUNNY     97  70  41 S6        29.89S HX 103
6HR MIN TEMP:  94; 6HR MAX TEMP:  98;

GREENVILLE       N/A     99  64  32 SE7       29.89S HX 101
ROCKWALL       MOSUNNY   97  71  41 CALM      29.88S HX 104
6HR MIN TEMP:  93; 6HR MAX TEMP:  99;

TERRELL        CLOUDY    95  73  48 E7        29.90R HX 104
6HR MIN TEMP:  94; 6HR MAX TEMP:  99; 6HR PCP: TRACE;

WAXAHACHIE     SUNNY     96  70  42 SE6       29.90S HX 102
6HR MIN TEMP:  94; 6HR MAX TEMP:  98;

CLEBURNE       SUNNY     95  70  43 E13       29.91S HX 101
GRANBURY       SUNNY    100  64  30 E9        29.89S HX 102
6HR MIN TEMP:  97; 6HR MAX TEMP: 101;

$$

TXZ083>090-098>101-113>116-127>130-139>142-154-155-250100-
WESTERN NORTH TEXAS

CITY           SKY/WX    TMP DP  RH WIND       PRES   REMARKS
WICHITA FALLS  SUNNY     97  69  40 SE13      29.88S HX 103
6HR MIN TEMP:  97; 6HR MAX TEMP: 100;

WF-KICKAPOO    SUNNY     99  65  32 SE10G17   29.89S HX 102
6HR MIN TEMP:  98; 6HR MAX TEMP: 101;

VERNON         SUNNY    101  54  20 SE10      29.88F HX  99
6HR MIN TEMP:  77; 6HR MAX TEMP: 102;

ABILENE        SUNNY     97  61  30 SE10      29.91F HX  97
6HR MIN TEMP:  94; 6HR MAX TEMP: 100;

ABILENE-DYESS  SUNNY     98  64  32 E12       29.89F HX 101
6HR MIN TEMP:  96; 6HR MAX TEMP: 101;

CISCO          SUNNY     97  63  32 SE14      29.93F HX  98
BRECKENRIDGE   SUNNY    100  60  26 SE8       29.88S HAZE    HX 100
6HR MIN TEMP:  97; 6HR MAX TEMP: 102;

GRAHAM         SUNNY    100  66  33 SE9       29.87S HX 103
6HR MIN TEMP:  97; 6HR MAX TEMP: 102;

MINERAL WELLS  SUNNY     97  67  37 SE9       29.87F HX 101
6HR MIN TEMP:  96; 6HR MAX TEMP: 100;

STEPHENVILLE   MOSUNNY   97  62  31 SE6       29.93S HX  97
6HR MIN TEMP:  94; 6HR MAX TEMP: 100;

COMANCHE       SUNNY     97  62  31 SE9       29.91F HX  98
6HR MIN TEMP:  95; 6HR MAX TEMP: 100;

BROWNWOOD      LGT RAIN  97  59  28 SE10      29.90S HX  96
COLEMAN        MOSUNNY   99  60  27 SE9       29.91F HX  98
6HR MIN TEMP:  93; 6HR MAX TEMP: 101;

$$

TXZ143>147-156>162-174-175-250100-
CENTRAL TEXAS

CITY           SKY/WX    TMP DP  RH WIND       PRES   REMARKS
WACO           MOSUNNY   98  64  32 SE9       29.87S HX 100
6HR MIN TEMP:  95; 6HR MAX TEMP: 101;

WACO-TSTC      SUNNY     99  64  32 SE7       29.87  HX 101
WACO-MCGREGOR  MOSUNNY   99  68  36 SE9       29.88  HX 104
6HR MIN TEMP:  94; 6HR MAX TEMP: 102;

HILLSBORO      SUNNY     96  68  40 E8        29.89S HX 100
6HR MIN TEMP:  92; 6HR MAX TEMP:  98;

CORSICANA      MOSUNNY   96  72  45 E10       29.90S HX 104
6HR MIN TEMP:  94; 6HR MAX TEMP:  99;

MEXIA          SUNNY     97  66  36 S8        29.88F HX 100
6HR MIN TEMP:  93; 6HR MAX TEMP:  99;

HEARNE         SUNNY     98  69  39 CALM      29.88S HX 104
6HR MIN TEMP:  93; 6HR MAX TEMP: 100;

CAMERON        SUNNY     98  69  38 SE6       29.87S HX 104
6HR MIN TEMP:  94; 6HR MAX TEMP: 100;

TEMPLE         PTSUNNY   98  69  38 SE9       29.88S HX 104
6HR MIN TEMP:  94; 6HR MAX TEMP: 100;

KILLEEN        MOSUNNY   95  66  37 SE12      29.89R HX  98
6HR MIN TEMP:  93; 6HR MAX TEMP:  99;

KILLEEN-SKYLRK MOSUNNY   98  69  38 S10       29.89S HX 104
6HR MIN TEMP:  93; 6HR MAX TEMP:  99;

FORT HOOD      SUNNY     96  67  38 SE10      29.87S HX 101
6HR MIN TEMP:  93; 6HR MAX TEMP:  99;

GATESVILLE     SUNNY     97  64  34 CALM      29.91S HX  99
HAMILTON       SUNNY     97  62  31 S8        29.92S HX  98
6HR MIN TEMP:  94; 6HR MAX TEMP:  99;

LAMPASAS       SUNNY     96  68  39 E9        29.89F HX 100
6HR MIN TEMP:  96; 6HR MAX TEMP:  99;

$$

TXZ095>097-106>112-122>126-135>138-148>153-164>167-250100-
EAST TEXAS

CITY           SKY/WX    TMP DP  RH WIND       PRES   REMARKS
PARIS          MOSUNNY   97  66  36 SE10      29.90S HX 100
6HR MIN TEMP:  97; 6HR MAX TEMP: 100;

SULPHUR SPRNGS SUNNY     96  70  42 SE10      29.91F HX 102
6HR MIN TEMP:  91; 6HR MAX TEMP:  99;

MOUNT PLEASANT CLOUDY    94  72  48 SE5       29.91S HX 102
6HR MIN TEMP:  89; 6HR MAX TEMP:  99;

GILMER         MOSUNNY   92  74  54 CALM      29.90S HX 101
6HR MIN TEMP:  88; 6HR MAX TEMP:  96;

MINEOLA        MOSUNNY   93  73  52 CALM      29.91S HX 102
TYLER          CLOUDY    86  72  62 SW3       29.90F HX  92
6HR MIN TEMP:  78; 6HR MAX TEMP: 100; 6HR PCP:  0.68;

LONGVIEW       PTSUNNY   92  79  65 E6        29.90S HX 108
6HR MIN TEMP:  92; 6HR MAX TEMP:  96;

MARSHALL       CLOUDY    82  73  73 SE8G17    29.98R
6HR MIN TEMP:  82; 6HR MAX TEMP:  95;

ATHENS         CLOUDY    91  70  49 E8        29.88F HX  97
PALESTINE      SUNNY     95  67  39 CALM      29.91F HX  99
JACKSONVILLE   MOSUNNY   91  71  50 N5        29.93F HX  98
HENDERSON      PTSUNNY   90  72  55 NW3       29.91S HX  97
6HR MIN TEMP:  90; 6HR MAX TEMP:  97;

CENTER         HVY RAIN  78  77  95 NE10G21   30.00R
6HR MIN TEMP:  78; 6HR MAX TEMP: 100; 6HR PCP:  0.25;

NACOGDOCHES    CLOUDY   N/A N/A N/A CALM      29.88S
LUFKIN         CLOUDY    92  72  51 S8        29.90R HX  99
6HR MIN TEMP:  92; 6HR MAX TEMP:  98;

$$

SUPPLEMENTAL OBSERVATIONS (CENTRAL)

CITY           SKY/WX    TMP DP  RH WIND       PRES   REMARKS
DENISON DAM      N/A     97  68  38 SW3         N/A  HX 101
CADDO GRASSLND   N/A     99  68  36 SE6         N/A  HX 104
PAT MAYSE LAKE   N/A     99  70  39 E6          N/A  HX 105
GREENVILLE       N/A     99  68  36 SE7         N/A  HX 104
CEDAR HILL       N/A     97  70  41 SE3         N/A  HX 103
LAKE LIMESTONE   N/A     99  68  36 S5          N/A  HX 104
MCGREGOR         N/A     99  66  34 SE9         N/A  HX 102
TC1F1C2F2C3F3C4F4C5F5C6F6C7F7C8F8C9!



USA.gov is the U.S. government's official web portal to all federal, state and local government web resources and services.